Waarnemingen

Advertentie
Mijn weer
Elsenborn, België (6496): temperatuur & dauwpunt: 09.08.2018 15:00:00 - 15.08.2018 15:00:00 (CEST)Elsenborn, België (6496): windsnelheid & windstoten: 09.08.2018 15:00:00 - 15.08.2018 15:00:00 (CEST)Elsenborn, België (6496): windrichting: 09.08.2018 15:00:00 - 15.08.2018 15:00:00 (CEST)Elsenborn, België (6496): luchtdruk: 09.08.2018 15:00:00 - 15.08.2018 15:00:00 (CEST)Elsenborn, België (6496): zicht: 09.08.2018 15:00:00 - 15.08.2018 15:00:00 (CEST)
Datum & Tijd tt [°C] td [°C] ff [km/u] ff [kn] fx [km/u] fx [kn] dd ppp [hPa] vv [km]
15.08.2018 15:00:00 19,1 12,8 4 2 18 10 N 1019,8 20
15.08.2018 14:00:00 19,6 12,4 4 2 - - N 1019,8 20
15.08.2018 13:00:00 17,6 13,6 7 4 14 8 ZW 1020,5 17
15.08.2018 12:00:00 15,9 14,0 4 2 14 8 N 1021,0 19
15.08.2018 11:00:00 15,1 13,8 4 2 - - N 1021,1 14
15.08.2018 10:00:00 13,9 13,6 7 4 14 8 ZW 1021,0 6
15.08.2018 09:00:00 12,6 12,5 4 2 14 8 N 1020,8 0,9
15.08.2018 08:00:00 12,1 12,1 4 2 - - N 1020,7 0,4
15.08.2018 07:00:00 11,6 11,6 4 2 7 4 N 1020,5 0,2
15.08.2018 06:00:00 12,1 12,1 4 2 7 4 N 1020,2 0,2
15.08.2018 05:00:00 12,4 12,1 4 2 - - N 1019,8 4,3
15.08.2018 04:00:00 13,1 12,3 4 2 7 4 N 1020,0 10
15.08.2018 03:00:00 12,3 12,2 4 2 4 2 N 1020,2 4,5
15.08.2018 02:00:00 13,4 12,4 2 1 - - - 1020,2 7
15.08.2018 01:00:00 13,6 12,5 4 2 7 4 N 1020,2 9
15.08.2018 00:00:00 13,8 13,1 4 2 7 4 N 1019,7 6
14.08.2018 23:00:00 14,2 13,5 2 1 - - - 1019,3 3,6
14.08.2018 22:00:00 14,7 14,0 4 2 7 4 N 1019,2 4,1
14.08.2018 21:00:00 15,9 14,3 4 2 14 8 N 1018,2 7
14.08.2018 20:00:00 16,7 14,4 7 4 - - W 1017,6 9
14.08.2018 19:00:00 17,0 14,1 7 4 14 8 WNW 1017,5 11
14.08.2018 18:00:00 16,6 14,3 7 4 18 10 N 1017,3 8
14.08.2018 17:00:00 15,6 14,7 11 6 - - WNW 1017,3 3,5
14.08.2018 16:00:00 16,7 14,8 7 4 22 12 W 1016,7 16
14.08.2018 15:00:00 18,5 14,5 7 4 22 12 W 1015,7 18
14.08.2018 14:00:00 16,8 14,9 7 4 - - W 1016,1 8
14.08.2018 13:00:00 16,0 14,3 7 4 22 12 W 1015,8 9
14.08.2018 12:00:00 15,0 14,1 7 4 18 10 W 1015,7 7
14.08.2018 11:00:00 14,4 13,9 7 4 - - W 1015,5 7
14.08.2018 10:00:00 14,0 14,0 8 4 - - WZW - 1,9
14.08.2018 09:00:00 - - - - - - - - -
14.08.2018 08:00:00 - - - - - - - - -
14.08.2018 07:00:00 - - - - - - - - -
14.08.2018 06:00:00 - - - - - - - - -
14.08.2018 05:00:00 - - - - - - - - -
14.08.2018 04:00:00 - - - - - - - - -
14.08.2018 03:00:00 - - - - - - - - -
14.08.2018 02:00:00 - - - - - - - - -
14.08.2018 01:00:00 - - - - - - - - -
14.08.2018 00:00:00 - - - - - - - - -
13.08.2018 23:00:00 - - - - - - - - -
13.08.2018 22:00:00 - - - - - - - - -
13.08.2018 21:00:00 - - - - - - - - -
13.08.2018 20:00:00 - - - - - - - - -
13.08.2018 19:00:00 - - - - - - - - -
13.08.2018 18:00:00 - - - - - - - - -
13.08.2018 17:00:00 - - - - - - - - -
13.08.2018 16:00:00 - - - - - - - - -
13.08.2018 15:00:00 - - - - - - - - -
13.08.2018 14:00:00 - - - - - - - - -
13.08.2018 13:00:00 - - - - - - - - -
13.08.2018 12:00:00 - - - - - - - - -
13.08.2018 11:00:00 - - - - - - - - -
13.08.2018 10:00:00 - - - - - - - - -
13.08.2018 09:00:00 14,1 13,6 4 2 11 6 N 1008,3 20
13.08.2018 08:00:00 13,6 13,3 4 2 - - N 1007,7 20
13.08.2018 07:00:00 13,3 12,8 4 2 14 8 - 1009,6 2,0
13.08.2018 06:00:00 14,3 11,7 4 2 14 8 N 1009,1 20
13.08.2018 05:00:00 14,5 11,2 4 2 - - - 1008,3 6
13.08.2018 04:00:00 10,6 7,6 4 2 4 2 N 1009,3 20
13.08.2018 03:00:00 10,8 7,3 0 0 0 0 N 1010,0 20
13.08.2018 02:00:00 11,0 7,3 0 0 - - N 1010,8 20
13.08.2018 01:00:00 11,6 7,7 4 2 0 0 N 1011,2 20
13.08.2018 00:00:00 12,0 7,2 0 0 4 2 N 1011,7 20
12.08.2018 23:00:00 14,3 7,0 4 2 - - N 1011,7 20
12.08.2018 22:00:00 17,7 5,8 4 2 7 4 N 1011,5 20
12.08.2018 21:00:00 18,3 6,7 4 2 7 4 N 1011,3 20
12.08.2018 20:00:00 22,0 4,0 4 2 - - N 1010,7 20
12.08.2018 19:00:00 22,6 3,4 4 2 14 8 N 1011,1 20
12.08.2018 18:00:00 22,1 4,3 4 2 18 10 N 1012,1 20
12.08.2018 17:00:00 22,5 4,9 4 2 - - N 1012,3 20
12.08.2018 16:00:00 22,6 4,5 7 4 18 10 N 1013,1 20
12.08.2018 15:00:00 22,3 5,7 4 2 18 10 N 1013,8 20
12.08.2018 14:00:00 21,8 7,5 7 4 - - WZW 1014,7 20
12.08.2018 13:00:00 20,7 7,0 4 2 18 10 N 1015,7 20
12.08.2018 12:00:00 19,3 7,2 4 2 14 8 N 1016,5 20
12.08.2018 11:00:00 18,4 7,3 7 4 - - Z 1017,2 20
12.08.2018 10:00:00 17,0 7,3 4 2 14 8 N 1017,7 20
12.08.2018 09:00:00 14,4 8,8 4 2 4 2 N 1018,6 20
12.08.2018 08:00:00 8,2 6,5 0 0 - - N 1020,3 20
12.08.2018 07:00:00 4,3 3,9 0 0 0 0 N 1021,6 20
12.08.2018 06:00:00 3,0 2,3 4 2 4 2 N 1022,2 20
12.08.2018 05:00:00 3,5 3,0 4 2 - - N 1022,6 20
12.08.2018 04:00:00 4,1 3,6 4 2 0 0 N 1023,1 20
12.08.2018 03:00:00 4,5 3,8 4 2 4 2 N 1023,3 20
12.08.2018 02:00:00 5,5 4,7 4 2 - - N 1023,7 20
12.08.2018 01:00:00 6,0 4,9 4 2 4 2 N 1024,0 20
12.08.2018 00:00:00 6,6 5,2 4 2 7 4 N 1024,0 20
11.08.2018 23:00:00 8,6 6,2 4 2 - - N 1024,0 20
11.08.2018 22:00:00 10,7 6,5 4 2 0 0 N 1023,5 20
11.08.2018 21:00:00 14,1 7,4 0 0 7 4 N 1022,6 20
11.08.2018 20:00:00 17,3 5,0 4 2 - - N 1022,1 20
11.08.2018 19:00:00 18,0 4,7 7 4 18 10 WNW 1022,1 20
11.08.2018 18:00:00 19,1 4,3 7 4 25 14 WZW 1021,7 20
11.08.2018 17:00:00 18,8 3,7 7 4 - - WZW 1022,1 20
11.08.2018 16:00:00 19,0 4,1 7 4 29 16 ZW 1022,2 20
11.08.2018 15:00:00 17,7 5,7 11 6 25 14 WNW 1022,8 20
11.08.2018 14:00:00 17,3 6,1 11 6 - - W 1023,2 20
11.08.2018 13:00:00 16,4 6,1 7 4 22 12 WNW 1023,3 20
11.08.2018 12:00:00 15,3 5,7 11 6 29 16 W 1023,7 20
11.08.2018 11:00:00 15,1 6,3 7 4 - - WZW 1023,7 20
11.08.2018 10:00:00 13,6 8,3 13 7 25 14 W 1023,8 10
11.08.2018 09:00:00 12,4 8,9 11 6 22 12 W 1023,7 20
11.08.2018 08:00:00 11,3 9,9 7 4 - - W 1023,5 20
11.08.2018 07:00:00 11,2 9,9 7 4 18 10 W 1023,1 20
11.08.2018 06:00:00 11,1 10,1 7 4 14 8 N 1022,7 20
11.08.2018 05:00:00 11,1 10,3 7 4 - - WZW 1022,3 20
11.08.2018 04:00:00 12,0 9,1 7 4 25 14 W 1022,1 17
11.08.2018 03:00:00 12,3 6,7 4 2 11 6 N 1021,7 20
11.08.2018 02:00:00 11,5 6,4 4 2 - - N 1022,2 20
11.08.2018 01:00:00 11,4 6,8 4 2 7 4 N 1022,6 20
11.08.2018 00:00:00 12,3 6,7 4 2 14 8 N 1022,2 20
10.08.2018 23:00:00 13,6 6,7 4 2 - - N 1022,2 20
10.08.2018 22:00:00 14,6 6,4 4 2 14 8 N 1022,2 20
10.08.2018 21:00:00 15,1 5,7 4 2 14 8 N 1021,8 20
10.08.2018 20:00:00 16,2 4,1 4 2 - - N 1021,7 20
10.08.2018 19:00:00 18,1 4,6 7 4 22 12 ZW 1021,3 20
10.08.2018 18:00:00 17,8 4,4 7 4 25 14 ZW 1021,7 20
10.08.2018 17:00:00 18,4 4,1 11 6 - - ZW 1021,7 20
10.08.2018 16:00:00 18,9 4,6 7 4 25 14 ZW 1021,8 20
10.08.2018 15:00:00 17,4 5,2 11 6 25 14 WZW 1022,5 20
10.08.2018 14:00:00 16,6 5,4 11 6 - - WZW 1022,8 20
10.08.2018 13:00:00 15,9 5,9 7 4 22 12 ZW 1023,1 20
10.08.2018 12:00:00 15,9 7,3 7 4 22 12 WZW 1023,1 20
10.08.2018 11:00:00 14,3 7,1 7 4 - - ZW 1023,2 20
10.08.2018 10:00:00 13,7 8,7 11 6 22 12 ZW 1023,3 20
10.08.2018 09:00:00 12,1 9,3 4 2 14 8 N 1023,2 17
10.08.2018 08:00:00 11,8 9,3 4 2 - - N 1022,8 20
10.08.2018 07:00:00 11,1 9,4 4 2 14 8 N 1022,5 20
10.08.2018 06:00:00 11,1 10,0 4 2 18 10 N 1022,0 18
10.08.2018 05:00:00 11,1 9,9 4 2 - - N 1021,6 20
10.08.2018 04:00:00 11,1 9,6 7 4 22 12 WZW 1021,2 20
10.08.2018 03:00:00 11,0 9,8 7 4 29 16 WZW 1020,7 20
10.08.2018 02:00:00 11,3 9,9 7 4 - - W 1019,7 18
10.08.2018 01:00:00 11,6 10,4 14 8 32 18 W 1018,7 20
10.08.2018 00:00:00 12,2 10,5 14 8 40 21 W 1017,5 14
09.08.2018 23:00:00 13,0 10,9 14 8 - - W 1016,1 20
09.08.2018 22:00:00 15,1 12,4 11 6 40 21 WZW 1014,2 20
09.08.2018 21:00:00 15,8 12,3 11 6 32 18 ZW 1012,7 20
09.08.2018 20:00:00 17,3 13,5 11 6 - - WZW 1011,5 20
09.08.2018 19:00:00 18,7 14,6 11 6 32 18 ZZW 1009,8 20
09.08.2018 18:00:00 19,6 15,1 11 6 29 16 Z 1009,5 20
09.08.2018 17:00:00 20,1 15,1 7 4 - - ZZW 1009,2 20
09.08.2018 16:00:00 20,3 16,1 11 6 32 18 ZW 1008,8 20
09.08.2018 15:00:00 19,3 17,2 9 5 25 14 Z 1008,6 10

tt = temperatuur
td = dauwpunt
ff = windsnelheid
fx = windstoten
dd = windrichting
ppp = luchtdruk
vv = zicht

Weerstations in de omgeving